This demonstration page uses our WeatherBlox Daily Observations layout. Learn more.

Hourly Observations for December 24, 2016

Temp ( °F °C ) Dew Point ( °F °C ) Humidity (%) Winds ( mph kmh ) Pressure ( in mb ) Visibility ( mi km ) Precip ( " mm )
12:15 am 00:15 Clear 21 -5.9 16 -8.8 80 80 WNW 5 7 30.15 1021 10 16.0934 0 0
12:35 am 00:35 Clear 21 -6.2 16 -9.1 80 80 NW 5 7 30.15 1021 10 16.0934 0 0
12:55 am 00:55 Clear 21 -6.2 15 -9.3 79 79 WNW 3 6 30.12 1020 10 16.0934 0 0
1:15 am 01:15 Clear 20 -6.5 15 -9.4 80 80 NW 3 6 30.12 1020 10 16.0934 0 0
1:35 am 01:35 Clear 22 -5.6 16 -8.9 78 78 W 3 6 30.15 1021 10 16.0934 0 0
1:55 am 01:55 Clear 19 -7.2 15 -9.6 83 83 Calm 30.15 1021 10 16.0934 0 0
2:15 am 02:15 Clear 18 -7.9 14 -10.2 84 84 Calm 30.15 1021 10 16.0934 0 0
2:35 am 02:35 Clear 17 -8.1 13 -10.4 84 84 Calm 30.15 1021 10 16.0934 0 0
2:55 am 02:55 Clear 17 -8.1 14 -10 86 86 Calm 30.18 1022 10 16.0934 0 0
3:15 am 03:15 Clear 17 -8.5 13 -10.5 86 86 Calm 30.15 1021 10 16.0934 0 0
3:35 am 03:35 Clear 17 -8.4 14 -9.9 89 89 Calm 30.15 1021 10 16.0934 0 0
3:55 am 03:55 Clear 14 -10.2 10 -12 87 87 SSW 3 6 30.21 1023 10 16.0934 0 0
4:15 am 04:15 Clear 15 -9.7 12 -11 90 90 Calm 30.21 1023 10 16.0934 0 0
4:35 am 04:35 Clear 15 -9.5 13 -10.8 90 90 S 3 6 30.21 1023 10 16.0934 0 0
4:55 am 04:55 Clear 17 -8.4 14 -10 88 88 Calm 30.18 1022 10 16.0934 0 0
5:15 am 05:15 Clear 14 -10.2 11 -11.8 88 88 SW 3 6 30.21 1023 10 16.0934 0 0
5:35 am 05:35 Clear 13 -10.5 10 -12.2 87 87 Calm 30.21 1023 10 16.0934 0 0
5:55 am 05:55 Clear 12 -11.1 9 -12.7 88 88 Calm 30.21 1023 10 16.0934 0 0
6:15 am 06:15 Clear 13 -10.3 11 -11.8 89 89 NW 3 6 30.21 1023 10 16.0934 0 0
6:35 am 06:35 Clear 14 -10.2 11 -11.9 88 88 Calm 30.21 1023 10 16.0934 0 0
6:55 am 06:55 Clear 14 -10.1 11 -11.9 87 87 Calm 30.21 1023 10 16.0934 0 0
7:15 am 07:15 Clear 13 -10.5 10 -12.3 87 87 Calm 30.24 1024 10 16.0934 0 0
7:35 am 07:35 Clear 14 -9.8 11 -11.6 87 87 W 3 6 30.27 1025 10 16.0934 0 0
7:55 am 07:55 Clear 16 -8.8 11 -11.4 82 82 W 3 6 30.27 1025 10 16.0934 0 0
8:15 am 08:15 Sunny 15 -9.7 11 -11.9 84 84 Calm 30.24 1024 10 16.0934 0 0
8:35 am 08:35 Sunny 16 -8.7 13 -10.5 87 87 Calm 30.21 1023 10 16.0934 0 0
8:55 am 08:55 Sunny 19 -7 16 -8.9 86 86 Calm 30.21 1023 10 16.0934 0 0
9:15 am 09:15 Sunny 23 -5 20 -6.8 87 87 Calm 30.18 1022 10 16.0934 0 0
9:35 am 09:35 Sunny 26 -3.5 22 -5.6 86 86 Calm 30.18 1022 10 16.0934 0 0
9:55 am 09:55 Sunny 27 -2.6 23 -5 84 84 SE 5 7 30.15 1021 10 16.0934 0 0
10:15 am 10:15 Sunny 29 -1.6 23 -4.8 79 79 SE 7 11 30.15 1021 10 16.0934 0 0
10:35 am 10:35 Sunny 32 -0.1 24 -4.2 74 74 SSE 7 11 30.18 1022 10 16.0934 0 0
10:55 am 10:55 Sunny 33 0.6 27 -3 77 77 SSE 10 17 30.12 1020 10 16.0934 0 0
11:15 am 11:15 Sunny 35 1.8 27 -2.7 72 72 SSE 10 17 30.12 1020 10 16.0934 0 0
11:35 am 11:35 Sunny 37 3 28 -2 70 70 SSE 13 20 30.09 1019 10 16.0934 0 0
11:55 am 11:55 Sunny 39 3.7 30 -1.1 71 71 S 15 24 30.06 1018 10 16.0934 0 0
12:15 pm 12:15 Sunny 40 4.3 30 -1 69 69 S 12 19 30.06 1018 10 16.0934 0 0
12:35 pm 12:35 Sunny 41 4.9 31 -0.8 67 67 S 9 15 30.06 1018 10 16.0934 0 0
12:55 pm 12:55 Sunny 41 5.1 31 -0.5 67 67 S 12 19 30.06 1018 10 16.0934 0 0
1:15 pm 13:15 Sunny 41 5.1 31 -0.5 67 67 S 12 19 30.03 1017 10 16.0934 0 0
1:35 pm 13:35 Sunny 42 5.5 32 0 68 68 SSE 12 19 30.03 1017 10 16.0934 0 0
1:55 pm 13:55 Sunny 44 6.4 33 0.5 66 66 SSE 12 19 29.97 1015 10 16.0934 0 0
2:15 pm 14:15 Sunny 45 7 32 0.1 62 62 S 14 22 29.97 1015 10 16.0934 0 0
2:35 pm 14:35 Sunny 45 7.1 32 0.2 62 62 SSE 15 24 29.97 1015 10 16.0934 0 0
2:55 pm 14:55 Sunny 45 7.2 32 -0.1 60 60 SSE 12 19 29.97 1015 10 16.0934 0 0
3:15 pm 15:15 Sunny 45 7.3 32 0 60 60 SE 13 20 29.97 1015 10 16.0934 0 0
3:35 pm 15:35 Sunny 45 7.2 32 0 61 61 SE 15 24 29.97 1015 10 16.0934 0 0
3:55 pm 15:55 Sunny 44 6.9 32 0 62 62 SSE 14 22 29.97 1015 10 16.0934 0 0
4:15 pm 16:15 Sunny 44 6.5 32 0 64 64 SE 13 20 29.94 1014 10 16.0934 0 0
4:35 pm 16:35 Sunny 43 5.9 31 -0.5 64 64 SE 10 17 29.94 1014 10 16.0934 0 0
4:55 pm 16:55 Sunny 41 4.9 31 -0.5 68 68 SE 9 15 29.97 1015 10 16.0934 0 0
5:15 pm 17:15 Sunny 38 3.3 30 -1.2 73 73 SE 7 11 29.97 1015 10 16.0934 0 0
5:35 pm 17:35 Clear 36 2.2 29 -1.5 77 77 SE 9 15 29.97 1015 10 16.0934 0 0
5:55 pm 17:55 Clear 35 1.4 29 -1.8 80 80 SE 9 15 30 1016 10 16.0934 0 0
6:15 pm 18:15 Clear 34 1.1 29 -1.9 81 81 SE 8 13 30 1016 10 16.0934 0 0
6:35 pm 18:35 Clear 32 0.1 28 -2.4 83 83 SE 8 13 30 1016 10 16.0934 0 0
6:55 pm 18:55 Clear 32 -0.2 28 -2.4 85 85 SE 9 15 30.03 1017 10 16.0934 0 0
7:15 pm 19:15 Clear 32 0 28 -2.3 85 85 ESE 9 15 30.03 1017 10 16.0934 0 0
7:35 pm 19:35 Clear 33 0.5 29 -1.6 86 86 ESE 9 15 30.03 1017 10 16.0934 0 0
7:55 pm 19:55 Clear 32 0.2 29 -1.6 88 88 SE 10 17 30 1016 10 16.0934 0 0
8:15 pm 20:15 Clear 32 0 29 -1.6 89 89 ESE 12 19 30 1016 10 16.0934 0 0
8:35 pm 20:35 Clear 32 -0.1 29 -1.5 90 90 ESE 10 17 30 1016 10 16.0934 0 0
8:55 pm 20:55 Clear 33 0.5 31 -0.6 92 92 ESE 14 22 30 1016 10 16.0934 0 0
9:15 pm 21:15 Clear 33 0.7 31 -0.6 91 91 ESE 15 24 29.97 1015 10 16.0934 0 0
9:35 pm 21:35 Clear 33 0.5 31 -0.7 92 92 ESE 16 26 29.97 1015 10 16.0934 0 0
9:55 pm 21:55 Clear 32 0.2 31 -0.8 93 93 ESE 15 24 29.97 1015 10 16.0934 0 0
10:15 pm 22:15 Clear 32 0.1 31 -0.8 94 94 SE 14 22 29.97 1015 10 16.0934 0 0
10:35 pm 22:35 Clear 32 0.1 31 -0.7 94 94 ESE 16 26 29.97 1015 7 11.26538 0 0
10:55 pm 22:55 Clear 32 0.1 31 -0.7 94 94 ESE 15 24 29.97 1015 7 11.26538 0 0
11:15 pm 23:15 Clear 32 0.1 31 -0.7 94 94 ESE 15 24 29.97 1015 7 11.26538 0 0
11:35 pm 23:35 Partly Cloudy 32 0 30 -0.9 94 94 ESE 13 20 29.97 1015 7 11.26538 0 0
11:55 pm 23:55 Cloudy with Mist and Fog 32 0 31 -0.7 95 95 ESE 15 24 29.97 1015 4 6.43736 0 0

Powered by AerisWeather